スミルノワ-チェルヌイフ彗星

74P/Smirnova-Chernykh (2018)

English version
Home page
Updated on June 15, 2021

---------------------------------------------------------------------

・ プロフィール

・ 写真集

・ 軌道要素

Epoch 2018 Feb. 11.0 TT = JDT 2458160.5                                         
T 2018 Jan. 26.70755 TT                                 Rudenko                 
q   3.5364683            (2000.0)            P               Q                  
n   0.11627461     Peri.   87.13530     -0.95561895     -0.27210262             
a   4.1573137      Node    77.05574     +0.20253408     -0.88515139             
e   0.1493381      Incl.    6.65392     +0.21394480     -0.37744826             
P   8.48                                                                        
From 5718 observations 1996 July 16-2020 July 12, mean residual 0".9.           
     Nongravitational parameters A1 = +0.01, A2 = -0.0073.                      

・ 星図

・ 光度変化

        m1 = 4.0 + 5 logΔ + 18.0 log r

---------------------------------------------------------------------

軌道要素はM.P.E.C. 2021-B143に掲載されたものです。
星図はステラナビゲータ Ver.8 (アストロアーツ) で作成したものです。
光度グラフはComet for Windowsで作成したものです。

---------------------------------------------------------------------

Copyright(C) Seiichi Yoshida (comet@aerith.net). All rights reserved.